Regional Weather Roundup
Issued by NWS

Home | Current Version | Previous Version | Text Only | Print | Product List | Glossary Off
Versions: 1 2 3 4 5 6 7 8 9 10 11 12 13 14 15 16 17 18 19 20 21 22 23 24 25 26 27 28 29 30 31 32 33 34 35 36 37 38 39 40 41 42 43 44 45 46 47 48 49 50

000
ASUS43 KTOP 252259
RWRKS

WEATHER ROUNDUP FOR KANSAS
NATIONAL WEATHER SERVICE GOODLAND KS
600 PM CDT WED APR 25 2018

NOTE:  "FAIR" INDICATES FEW OR NO CLOUDS BELOW 12,000 FEET WITH NO
SIGNIFICANT WEATHER AND/OR OBSTRUCTIONS TO VISIBILITY.

KSZ001>006-013>018-027>032-041>047-260000-
NORTHWEST KANSAS

CITY           SKY/WX    TMP DP  RH WIND       PRES   REMARKS
GOODLAND       SUNNY     60  31  33 N7        30.11F
HAYS           MOSUNNY   58  35  42 N14       30.12F
HILL CITY      SUNNY     60  36  40 NW5       30.12F
RUSSELL        PTSUNNY   55  40  56 NE13      30.12F
$$

KSZ061>065-074>080-084>089-260000-
SOUTHWEST KANSAS

CITY           SKY/WX    TMP DP  RH WIND       PRES   REMARKS
DODGE CITY     SUNNY     58  36  43 N14       30.13F
GARDEN CITY    SUNNY     58  33  39 N12       30.13F
GREAT BEND     PTSUNNY   54  40  59 NE15G23   30.13F
LIBERAL        MOSUNNY   59  36  42 N12       30.16F
$$

KSZ066>073-081>083-090>101-260000-
SOUTHEAST KANSAS

CITY           SKY/WX    TMP DP  RH WIND       PRES   REMARKS
CHANUTE        CLOUDY    52  49  89 N15       30.03F
COFFEYVILLE    RAIN      52  51  97 NW8       30.02F FOG
HUTCHINSON     CLOUDY    49  42  77 N13       30.12S
MEDICINE LODGE   N/A     54  40  59 NW12      30.12F
NEWTON         CLOUDY    46  43  89 N15       30.11S
PARSONS        CLOUDY    53  50  89 N12       30.03F
WICHITA INTL   CLOUDY    48  44  86 N16G25    30.10F
WICHITA JABRA  CLOUDY    46  45  96 N17       30.10S
WINFIELD       CLOUDY    48  46  93 NW15      30.10S
$$

KSZ007>012-019>026-033>040-048>060-102>105-260000-
NORTHEAST KANSAS

CITY           SKY/WX    TMP DP  RH WIND       PRES   REMARKS
CONCORDIA      CLOUDY    50  40  68 N8        30.12F
EMPORIA        LGT RAIN  48  45  89 N13G20    30.07S
LAWRENCE       LGT RAIN  50  48  93 N3        30.07F
MANHATTAN      CLOUDY    50  44  80 N6        30.11F
OLATHE IND     LGT RAIN  49  48  97 N9        30.07S
OLATHE EXE     LGT RAIN  48  47  96 NE9       30.05F
SALINA         CLOUDY    50  44  80 N15G21    30.13S
TOPEKA BILLARD LGT RAIN  50  49  96 N9        30.08S
TOPEKA FORBES  CLOUDY    50  48  93 N8        30.07F
$$




USA.gov is the U.S. government's official web portal to all federal, state and local government web resources and services.